[[{"header":{"parameterUnit":"m.s-1","parameterCategory":1,"la1":30.2991,"la2":30.254,"lo1":-89.0895,"lo2":-89.0444,"dy":0.0017,"dx":0.0017,"nx":28,"ny":28,"refTime":"2024-06-25T03:00:00:Z","depth":0,"parameterNumber":2,"parameterNumberName":"U-component_of_WINDS"},"data":[0,0,0,0,0,0,0,0,0,0,0,0,0,0,0,0,0,0,0,0,0,0,0,0,0,0,0,0,0,0,0,0,0,0,0,0,0,0,0,0,0,0,0,0,0,0,0,0,0,0,0,0,0,0,0,0,0,0,3.5978,3.5979,0,3.6084,3.6086,3.6087,3.6053,3.6051,3.6049,3.6046,3.6164,3.6169,3.6174,0,0,0,0,0,0,0,0,0,0,0,0,0,3.5754,3.5758,3.5978,3.5979,3.598,3.6084,3.6086,3.6087,3.6054,3.6051,3.6048,3.6045,3.6162,3.6168,3.6174,0,0,0,0,0,0,0,0,0,0,0,0,0,3.5855,3.5759,3.5977,3.5976,3.5977,3.6084,3.6086,3.6088,3.6054,3.6051,3.6047,3.6044,3.616,3.6167,3.6175,3.6293,0,0,3.6199,3.6203,0,0,0,0,0,0,0,0,3.5849,3.5863,3.5975,3.5976,3.5977,3.6052,3.605,3.6157,3.6055,3.6025,3.6046,3.6042,3.613,3.614,3.6168,3.6298,3.6303,3.62,3.6205,3.6208,3.621,0,0,0,0,0,0,0,3.5842,3.5859,3.602,3.5976,3.5978,3.5973,3.5983,3.607,3.6096,3.6027,3.6025,3.6038,3.613,3.616,3.617,3.6305,3.62,3.6207,3.6212,3.6215,3.6541,3.6545,0,0,0,0,0,0,3.5833,3.5853,3.6017,3.6023,3.5903,3.598,3.5991,3.6032,3.6094,3.6101,3.6041,3.6036,3.6148,3.6161,3.6174,3.6318,3.6208,3.6215,3.622,3.6537,3.6542,3.6546,0,0,0,0,0,0,3.5829,3.5848,3.6012,3.5938,3.5958,3.5987,3.6032,3.6035,3.6065,3.6104,3.611,3.6066,3.6146,3.6163,3.6264,3.6321,3.6219,3.6226,3.6533,3.6539,3.6544,3.6604,0,0,0,0,0,0,3.5822,3.5847,3.5889,3.5939,3.5962,3.6097,3.6036,3.604,3.6078,3.6073,3.613,3.6136,3.6145,3.6252,3.6272,3.633,3.6232,3.6528,3.6535,3.6542,3.6597,3.6611,3.6624,0,0,0,0,0,3.5814,3.5903,3.5891,3.5911,3.6015,3.6101,3.6114,3.612,3.6083,3.6128,3.6153,3.6134,3.6312,3.6263,3.6284,3.6346,3.6524,3.6533,3.6542,3.6591,3.6609,3.6623,0,0,0,0,0,0,3.5861,3.5909,3.5897,3.6003,3.6048,3.6095,3.6151,3.6138,3.6196,3.6189,3.6196,3.621,3.6313,3.634,3.6284,3.6465,3.6413,3.6426,3.6443,3.646,3.6473,3.6464,3.6239,0,0,0,0,0,3.5883,3.5946,3.5986,3.6076,3.6099,3.6121,3.6159,3.6159,3.6207,3.6226,3.6259,3.6308,3.6375,3.6419,3.6483,3.6601,3.6615,3.6655,3.6668,3.6679,3.6691,3.6758,3.6777,3.6575,3.6575,3.6575,0,0,3.5931,3.5965,3.6004,3.6086,3.6121,3.6188,3.6137,3.621,3.6262,3.6238,3.6334,3.6361,3.6417,3.6527,3.6578,3.6553,3.6749,3.669,3.6698,3.6704,3.6769,3.6788,3.6805,3.6581,3.658,3.6579,0,0,3.6051,3.6082,3.6162,3.6198,3.625,3.6265,3.6285,3.6334,3.635,3.6447,3.6431,3.6494,3.6609,3.665,3.6686,3.6826,3.6811,3.6847,3.6915,3.6981,3.6997,3.7011,3.7062,3.7081,3.6858,3.6858,3.6859,0,3.6104,3.6202,3.6205,3.628,3.6318,3.6299,3.6381,3.6417,3.6489,3.6517,3.6488,3.6633,3.6669,3.679,3.6824,3.6854,3.6878,3.684,3.6994,3.7008,3.7021,3.7071,3.709,3.6862,3.6862,3.6861,3.6861,0,3.6266,3.6335,3.6393,3.6461,3.6506,3.6585,3.6603,3.6649,3.6647,3.6666,3.6767,3.681,3.6882,3.6912,3.6911,3.7034,3.7017,3.6991,3.6939,3.7044,3.7091,3.711,3.6868,3.6867,3.6865,3.6864,0,0,3.6417,3.6487,3.6508,3.654,3.6598,3.6653,3.6733,3.6802,3.6843,3.6894,3.6963,3.7062,3.7038,3.7079,3.7084,3.7141,3.7252,3.7108,3.711,3.7134,3.7393,3.7412,3.7433,3.7243,3.7246,3.7249,3.7388,0,3.6543,3.668,3.6686,3.6812,3.6877,3.6862,3.6932,3.6977,3.6998,3.7059,3.7083,3.7153,3.7116,3.7141,3.7198,3.7226,3.7304,3.7216,3.7309,3.7313,3.7295,3.7457,3.7477,3.7606,3.7406,3.7409,3.7411,0,3.6708,3.6763,3.6895,3.6946,3.6973,3.7035,3.7101,3.7159,3.7212,3.7223,3.727,3.7267,3.7352,3.7297,3.7417,3.7357,3.7396,3.7416,3.7422,3.743,3.7368,3.7471,3.7647,3.7666,3.744,3.7438,3.7436,0,3.6807,3.6914,3.7007,3.7035,3.7096,3.7141,3.7169,3.7218,3.726,3.7319,3.7347,3.7416,3.7454,3.7509,3.7526,3.7484,3.7646,3.7592,3.766,3.7659,3.7694,3.7691,3.7879,3.7719,3.7718,3.7718,3.7718,0,3.6947,3.7028,3.7052,3.7109,3.7202,3.721,3.7302,3.7328,3.7373,3.7437,3.7429,3.749,3.7509,3.7575,3.7589,3.7687,3.7704,3.7718,3.772,3.7718,3.7717,3.7744,3.7735,3.7723,3.7722,3.7721,3.772,0,3.7072,3.7091,3.7191,3.7242,3.7257,3.7323,3.7367,3.7424,3.7444,3.7527,3.7547,3.758,3.7657,3.7679,3.7773,3.7782,3.7897,3.7892,3.7879,3.7879,3.7946,3.7939,3.8157,3.8187,3.8007,3.8009,3.801,0,3.716,3.7222,3.7279,3.7321,3.7351,3.7418,3.7461,3.7474,3.7519,3.7585,3.7635,3.7711,3.7772,3.7897,3.7931,3.8004,3.8,3.8072,3.8011,3.8008,3.8002,3.7998,3.8005,3.8083,3.8085,3.8086,3.8088,0,3.7315,3.7322,3.7382,3.7448,3.7499,3.7552,3.7603,3.7638,3.7659,3.7711,3.7789,3.7836,3.7932,3.8008,3.8081,3.8114,3.8106,3.8107,3.8126,3.8124,3.8114,3.8122,3.791,3.8101,3.81,3.8099,3.8098,3.8098,3.7425,3.748,3.7529,3.7599,3.7638,3.7686,3.7742,3.777,3.7834,3.7911,3.7916,3.8001,3.8055,3.8153,3.819,3.8258,3.8238,3.8266,3.8273,3.828,3.8286,3.8104,3.8272,3.8272,3.8271,3.8271,3.8271,0,3.758,3.7611,3.7675,3.7745,3.7801,3.7786,3.7843,3.7891,3.7965,3.8015,3.8075,3.8167,3.8241,3.8282,3.8357,3.8405,3.8403,3.8424,3.8421,3.8429,3.83,3.8275,3.8425,3.8424,3.8424,3.8424,3.8424,3.8424,3.7667,3.776,3.7774,3.7888,3.792,3.8001,3.8035,3.808,3.8121,3.8222,3.8283,3.8308,3.8356,3.8435,3.8504,3.8515,3.8543,3.8567,3.8575,3.8454,3.8438,3.8423,3.84,3.8573,3.8573,3.8699,3.87,3.8701]},{"header":{"parameterUnit":"m.s-1","parameterCategory":1,"la1":30.2991,"la2":30.254,"lo1":-89.0895,"lo2":-89.0444,"dy":0.0017,"dx":0.0017,"nx":28,"ny":28,"refTime":"2024-06-25T03:00:00:Z","depth":0,"parameterNumber":3,"parameterNumberName":"V-component_of_WINDS"},"data":[0,0,0,0,0,0,0,0,0,0,0,0,0,0,0,0,0,0,0,0,0,0,0,0,0,0,0,0,0,0,0,0,0,0,0,0,0,0,0,0,0,0,0,0,0,0,0,0,0,0,0,0,0,0,0,0,0,0,2.9054,2.9055,0,2.9176,2.9177,2.9178,2.9182,2.918,2.9179,2.9178,2.9299,2.9304,2.9308,0,0,0,0,0,0,0,0,0,0,0,0,0,2.8821,2.8826,2.9054,2.9055,2.9057,2.9175,2.9177,2.9179,2.9182,2.918,2.9179,2.9177,2.9298,2.9303,2.9309,0,0,0,0,0,0,0,0,0,0,0,0,0,2.893,2.8827,2.9054,2.9073,2.9076,2.9175,2.9177,2.9179,2.9183,2.918,2.9178,2.9176,2.9296,2.9303,2.931,2.9396,0,0,2.9331,2.9334,0,0,0,0,0,0,0,0,2.8924,2.8939,2.9069,2.9072,2.9075,2.9161,2.914,2.9252,2.9183,2.9142,2.9178,2.9175,2.9255,2.9265,2.9293,2.9402,2.9407,2.9331,2.9335,2.9338,2.934,0,0,0,0,0,0,0,2.8917,2.8934,2.9102,2.9071,2.9075,2.9075,2.9088,2.9161,2.9209,2.9145,2.9146,2.9161,2.9256,2.9286,2.9296,2.9409,2.9331,2.9337,2.9342,2.9344,2.9594,2.9596,0,0,0,0,0,0,2.8906,2.8927,2.9098,2.9106,2.8993,2.9081,2.9095,2.9136,2.9209,2.9218,2.9162,2.916,2.9275,2.9288,2.93,2.9405,2.9338,2.9345,2.9349,2.9592,2.9595,2.9597,0,0,0,0,0,0,2.8901,2.8921,2.9093,2.9017,2.9039,2.9087,2.9133,2.914,2.9169,2.9221,2.923,2.9184,2.9274,2.929,2.9372,2.9409,2.9348,2.9354,2.9589,2.9593,2.9596,2.9617,0,0,0,0,0,0,2.8894,2.8919,2.8954,2.9018,2.9043,2.9165,2.9135,2.9143,2.9181,2.918,2.9244,2.9252,2.9274,2.9362,2.9379,2.9418,2.936,2.9585,2.959,2.9595,2.9613,2.9621,2.9628,0,0,0,0,0,2.8886,2.8954,2.8955,2.8976,2.9087,2.9167,2.9181,2.9205,2.9184,2.9219,2.9252,2.925,2.9403,2.937,2.939,2.9431,2.9583,2.9589,2.9594,2.961,2.962,2.9628,0,0,0,0,0,0,2.8893,2.8963,2.8965,2.9056,2.9106,2.9167,2.9211,2.9215,2.927,2.9266,2.9292,2.9307,2.9388,2.9418,2.938,2.9518,2.949,2.95,2.9496,2.9505,2.9512,2.9503,2.9365,0,0,0,0,0,2.8905,2.8965,2.9023,2.9098,2.9123,2.9163,2.9198,2.9213,2.9264,2.9285,2.9324,2.9373,2.9432,2.947,2.9528,2.9618,2.9631,2.9656,2.9663,2.9669,2.9676,2.9725,2.9736,2.9616,2.9616,2.9616,0,0,2.8931,2.8977,2.9013,2.91,2.914,2.92,2.918,2.9245,2.9289,2.9294,2.9374,2.9405,2.9461,2.9547,2.9587,2.9575,2.9713,2.9676,2.968,2.9685,2.9732,2.9743,2.9753,2.9619,2.9619,2.9618,0,0,2.9008,2.9049,2.9116,2.9156,2.9217,2.9243,2.9259,2.932,2.9341,2.9422,2.9426,2.9479,2.958,2.962,2.9654,2.9745,2.9745,2.9763,2.9801,2.9847,2.9857,2.9865,2.9896,2.9908,2.9771,2.9771,2.9771,0,2.9032,2.9124,2.9149,2.9214,2.9252,2.926,2.9327,2.9364,2.944,2.9466,2.9451,2.9577,2.9616,2.9711,2.9733,2.9761,2.9778,2.9756,2.9854,2.9862,2.9871,2.9901,2.9912,2.9773,2.9772,2.9772,2.9772,0,2.9149,2.9213,2.9259,2.9333,2.9376,2.9442,2.9476,2.9516,2.9527,2.9554,2.9635,2.9682,2.9748,2.9772,2.9782,2.9868,2.9858,2.9848,2.9821,2.9883,2.9912,2.9924,2.9775,2.9775,2.9774,2.9774,0,0,2.9234,2.9321,2.9338,2.9371,2.9438,2.9487,2.9552,2.9618,2.9651,2.9703,2.9757,2.9843,2.9834,2.9872,2.9887,2.9928,2.9996,2.9913,2.9915,2.9926,3.0091,3.0097,3.011,2.9997,2.9999,3.0001,3.0086,0,2.9317,2.9435,2.9459,2.956,2.9618,2.9626,2.9683,2.973,2.9757,2.9809,2.9838,2.9898,2.9883,2.9905,2.9947,2.9979,3.0029,2.9973,3.0046,3.0048,3.003,3.0125,3.0132,3.021,3.0097,3.0099,3.01,0,2.943,2.9486,2.9592,2.9651,2.9677,2.9727,2.9789,2.9839,2.9892,2.9908,2.9951,2.9961,3.0028,2.9998,3.0089,3.005,3.0081,3.0101,3.0105,3.0112,3.0077,3.0133,3.0235,3.0246,3.0119,3.0117,3.0116,0,2.9479,2.9581,2.9657,2.9685,2.9757,2.9792,2.9823,2.9873,2.9911,2.9964,2.9988,3.0049,3.0081,3.0127,3.0153,3.0129,3.0241,3.0214,3.0255,3.0255,3.0278,3.0276,3.0385,3.03,3.03,3.03,3.0299,0,2.9569,2.9634,2.968,2.9727,2.9799,2.9826,2.9896,2.9927,2.9972,3.0024,3.0035,3.0083,3.0115,3.0167,3.0188,3.0259,3.0274,3.0288,3.0292,3.0286,3.0284,3.0306,3.0301,3.0303,3.0302,3.0301,3.0301,0,2.9635,2.9669,2.9753,2.9814,2.9831,2.9881,2.9932,2.9977,3.0004,3.007,3.0087,3.0129,3.0191,3.0222,3.0299,3.0313,3.0393,3.0394,3.0375,3.0377,3.0416,3.0411,3.0542,3.056,3.0464,3.0465,3.0466,0,2.969,2.974,2.9806,2.9842,2.9874,2.9932,2.9971,2.9999,3.0038,3.0102,3.0139,3.0202,3.0253,3.0352,3.0389,3.0447,3.0449,3.0491,3.0458,3.045,3.0448,3.0444,3.0449,3.0497,3.0498,3.0498,3.0499,0,2.9782,2.9796,2.9852,2.9914,2.9959,3.0009,3.0058,3.0086,3.0122,3.0166,3.023,3.027,3.0349,3.041,3.0472,3.0502,3.0506,3.0509,3.0522,3.0515,3.0501,3.0508,3.039,3.0506,3.0505,3.0505,3.0504,3.0504,2.9843,2.9887,2.9941,3.0002,3.0042,3.0087,3.0132,3.0165,3.022,3.0287,3.03,3.0368,3.0418,3.0501,3.0533,3.0585,3.0576,3.0594,3.0598,3.0602,3.0603,3.0494,3.0596,3.0596,3.0596,3.0596,3.0596,0,2.9934,2.9969,3.0026,3.0094,3.0142,3.0143,3.0197,3.0236,3.0296,3.0343,3.0394,3.0467,3.0526,3.0568,3.0628,3.0662,3.0665,3.0676,3.0673,3.068,3.0609,3.0592,3.0673,3.0673,3.0673,3.0673,3.0673,3.0673,2.9987,3.0062,3.0083,3.0177,3.0211,3.0278,3.0308,3.0349,3.0387,3.0468,3.0518,3.0546,3.059,3.0654,3.0708,3.0718,3.0739,3.0751,3.0761,3.0693,3.0685,3.0677,3.0661,3.0755,3.0756,3.0827,3.0828,3.0828]}]]